CCM70CI LFKJ-LFBO

Flight info

Callsign CCM70CI
Flight time N/A
Altitude 16000
Route TINOT DCT AMFAC DCT FJR DCT AFRIC
Aircraft AT75/M-SDFGIRY/S

Departure

Time 2026-04-26 14:02
Airport Ajaccio Napoléon Bonaparte airport (LFKJ)

Arrival

Time N/A
Airport Toulouse-Blagnac Airport (LFBO)
Time Latitude Longitude Altitude Speed Heading
2026-04-26 13:49 41.92014 8.79611 25 ft 0 kts 345°
2026-04-26 13:58 41.92017 8.79611 23 ft 3 kts 354°
2026-04-26 13:58 41.92016 8.79660 23 ft 8 kts 103°
2026-04-26 13:58 41.92047 8.79699 23 ft 8 kts 21°
2026-04-26 13:59 41.92113 8.79741 23 ft 13 kts 26°
2026-04-26 13:59 41.92228 8.79813 23 ft 21 kts 25°
2026-04-26 13:59 41.92362 8.79896 24 ft 21 kts 25°
2026-04-26 14:00 41.92819 8.80203 26 ft 25 kts 48°
2026-04-26 14:00 41.92937 8.80373 26 ft 24 kts 45°
2026-04-26 14:00 41.92965 8.80461 28 ft 4 kts 106°
2026-04-26 14:01 41.92938 8.80552 28 ft 11 kts 121°
2026-04-26 14:01 41.92881 8.80550 28 ft 8 kts 206°
2026-04-26 14:01 41.92813 8.80507 30 ft 30 kts 204°
2026-04-26 14:01 41.92451 8.80278 17 ft 86 kts 204°
2026-04-26 14:02 41.91784 8.79885 193 ft 113 kts 205°
2026-04-26 14:02 41.90980 8.79427 493 ft 135 kts 204°
2026-04-26 14:02 41.90112 8.78771 821 ft 155 kts 213°
2026-04-26 14:02 41.89174 8.77907 1182 ft 170 kts 217°
2026-04-26 14:03 41.88200 8.76949 1690 ft 176 kts 217°
2026-04-26 14:03 41.87205 8.75984 2208 ft 180 kts 216°
2026-04-26 14:03 41.86172 8.75023 2776 ft 182 kts 216°
2026-04-26 14:03 41.85115 8.74048 3308 ft 186 kts 214°
2026-04-26 14:04 41.84033 8.73075 3845 ft 188 kts 214°
2026-04-26 14:04 41.82936 8.72087 4402 ft 190 kts 214°
2026-04-26 14:04 41.81830 8.71095 4979 ft 191 kts 214°
2026-04-26 14:04 41.80720 8.70095 5528 ft 193 kts 214°
2026-04-26 14:05 41.79598 8.69086 6075 ft 195 kts 214°
2026-04-26 14:05 41.78477 8.68083 6618 ft 197 kts 214°
2026-04-26 14:05 41.77332 8.67053 7146 ft 198 kts 214°
2026-04-26 14:05 41.76185 8.66023 7692 ft 199 kts 214°
2026-04-26 14:06 41.75034 8.64989 8255 ft 199 kts 214°
2026-04-26 14:06 41.73884 8.63957 8831 ft 199 kts 214°
2026-04-26 14:06 41.72731 8.62924 9403 ft 199 kts 213°
2026-04-26 14:06 41.71712 8.61718 9937 ft 198 kts 240°
2026-04-26 14:07 41.71465 8.60537 10249 ft 202 kts 269°
2026-04-26 14:07 41.71834 8.58081 10931 ft 204 kts 287°
2026-04-26 14:07 41.72382 8.56327 11458 ft 205 kts 295°
2026-04-26 14:07 41.73069 8.54647 11987 ft 205 kts 299°
2026-04-26 14:08 41.73561 8.53538 12351 ft 205 kts 300°
2026-04-26 14:08 41.74287 8.51914 12883 ft 205 kts 299°
2026-04-26 14:08 41.75012 8.50270 13417 ft 205 kts 299°
2026-04-26 14:08 41.75727 8.48618 13953 ft 205 kts 298°
2026-04-26 14:09 41.76431 8.46962 14411 ft 205 kts 298°
2026-04-26 14:09 41.77129 8.45293 14863 ft 205 kts 298°
2026-04-26 14:09 41.77827 8.43621 15310 ft 205 kts 298°
2026-04-26 14:09 41.78528 8.41945 15730 ft 207 kts 298°
2026-04-26 14:10 41.79252 8.40220 15969 ft 219 kts 298°
2026-04-26 14:10 41.80019 8.38397 16064 ft 235 kts 299°
2026-04-26 14:10 41.80855 8.36422 16117 ft 251 kts 299°
2026-04-26 14:10 41.81740 8.34324 16140 ft 264 kts 299°
2026-04-26 14:11 41.83612 8.29843 16156 ft 284 kts 299°
2026-04-26 14:11 41.84479 8.27423 16159 ft 291 kts 292°
2026-04-26 14:11 41.85206 8.24871 16159 ft 295 kts 290°
2026-04-26 14:12 41.85917 8.22300 16154 ft 299 kts 290°
2026-04-26 14:12 41.86675 8.19681 16159 ft 302 kts 291°
2026-04-26 14:12 41.87478 8.17056 16153 ft 305 kts 292°
2026-04-26 14:12 41.88285 8.14406 16159 ft 307 kts 292°
2026-04-26 14:13 41.89894 8.09107 16150 ft 309 kts 292°
2026-04-26 14:13 41.90710 8.06422 16158 ft 310 kts 292°
2026-04-26 14:13 41.91525 8.03734 16161 ft 311 kts 292°
2026-04-26 14:14 41.92343 8.01035 16160 ft 312 kts 291°
2026-04-26 14:14 41.93159 7.98332 16157 ft 312 kts 291°
2026-04-26 14:14 41.93975 7.95623 16163 ft 312 kts 291°
2026-04-26 14:14 41.94795 7.92919 16163 ft 312 kts 291°
2026-04-26 14:15 41.95607 7.90216 16160 ft 313 kts 292°
2026-04-26 14:15 41.96424 7.87504 16158 ft 313 kts 291°
2026-04-26 14:15 41.97229 7.84823 16158 ft 313 kts 291°
2026-04-26 14:15 41.98048 7.82104 16158 ft 313 kts 291°
2026-04-26 14:16 41.98865 7.79385 16159 ft 313 kts 291°
2026-04-26 14:16 41.99677 7.76669 16159 ft 313 kts 291°
2026-04-26 14:16 42.00492 7.73951 16159 ft 313 kts 291°
2026-04-26 14:16 42.01307 7.71230 16159 ft 313 kts 291°
2026-04-26 14:17 42.02122 7.68503 16157 ft 313 kts 291°
2026-04-26 14:17 42.02924 7.65821 16157 ft 313 kts 291°
2026-04-26 14:17 42.03735 7.63104 16157 ft 313 kts 291°
2026-04-26 14:17 42.04542 7.60386 16156 ft 313 kts 291°
2026-04-26 14:18 42.05352 7.57664 16152 ft 312 kts 291°
2026-04-26 14:18 42.06161 7.54950 16153 ft 312 kts 291°
2026-04-26 14:18 42.06966 7.52242 16153 ft 312 kts 291°
2026-04-26 14:18 42.07767 7.49535 16154 ft 311 kts 291°
2026-04-26 14:19 42.08573 7.46816 16154 ft 311 kts 291°
2026-04-26 14:19 42.09376 7.44109 16154 ft 311 kts 291°
2026-04-26 14:19 42.10168 7.41434 16154 ft 311 kts 291°
2026-04-26 14:19 42.10969 7.38722 16154 ft 311 kts 291°
2026-04-26 14:20 42.11766 7.36019 16153 ft 311 kts 291°
2026-04-26 14:20 42.12567 7.33309 16154 ft 311 kts 291°
2026-04-26 14:20 42.13365 7.30597 16154 ft 311 kts 291°
2026-04-26 14:20 42.14160 7.27893 16151 ft 311 kts 291°
2026-04-26 14:21 42.14959 7.25179 16152 ft 311 kts 291°
2026-04-26 14:21 42.15743 7.22502 16152 ft 311 kts 291°
2026-04-26 14:21 42.16543 7.19786 16151 ft 311 kts 291°
2026-04-26 14:21 42.17336 7.17079 16152 ft 311 kts 291°
2026-04-26 14:22 42.18127 7.14368 16148 ft 310 kts 291°
2026-04-26 14:22 42.18921 7.11663 16150 ft 310 kts 291°
2026-04-26 14:22 42.19713 7.08947 16150 ft 310 kts 291°
2026-04-26 14:22 42.20502 7.06236 16150 ft 310 kts 291°
2026-04-26 14:23 42.21295 7.03528 16148 ft 310 kts 291°
2026-04-26 14:23 42.22072 7.00857 16149 ft 309 kts 291°
2026-04-26 14:23 42.22857 6.98153 16140 ft 309 kts 291°
2026-04-26 14:23 42.23641 6.95459 16140 ft 308 kts 291°
2026-04-26 14:24 42.24423 6.92756 16140 ft 308 kts 291°
2026-04-26 14:24 42.25210 6.90055 16140 ft 309 kts 291°
2026-04-26 14:24 42.25991 6.87354 16141 ft 309 kts 291°
2026-04-26 14:24 42.26775 6.84649 16141 ft 309 kts 291°
2026-04-26 14:25 42.27544 6.81976 16135 ft 308 kts 291°
2026-04-26 14:25 42.28326 6.79281 16135 ft 307 kts 291°
2026-04-26 14:25 42.29101 6.76592 16134 ft 307 kts 291°
2026-04-26 14:25 42.29877 6.73891 16134 ft 308 kts 291°
2026-04-26 14:26 42.30653 6.71197 16132 ft 308 kts 291°
2026-04-26 14:26 42.31428 6.68498 16125 ft 308 kts 291°
2026-04-26 14:26 42.32206 6.65798 16124 ft 308 kts 291°
2026-04-26 14:26 42.32968 6.63138 16125 ft 308 kts 291°
2026-04-26 14:27 42.33741 6.60436 16125 ft 307 kts 291°
2026-04-26 14:27 42.34515 6.57739 16125 ft 307 kts 291°
2026-04-26 14:27 42.35282 6.55054 16124 ft 307 kts 291°
2026-04-26 14:27 42.36054 6.52357 16116 ft 307 kts 291°
2026-04-26 14:28 42.36822 6.49663 16119 ft 307 kts 291°
2026-04-26 14:28 42.37593 6.46963 16118 ft 306 kts 291°
2026-04-26 14:28 42.38350 6.44309 16117 ft 307 kts 291°
2026-04-26 14:28 42.39112 6.41620 16118 ft 307 kts 291°
2026-04-26 14:29 42.39878 6.38919 16116 ft 307 kts 291°
2026-04-26 14:29 42.40647 6.36218 16115 ft 307 kts 291°
2026-04-26 14:29 42.41413 6.33514 16116 ft 307 kts 291°
2026-04-26 14:29 42.42169 6.30850 16116 ft 307 kts 291°
2026-04-26 14:30 42.42934 6.28147 16115 ft 307 kts 291°
2026-04-26 14:30 42.43696 6.25442 16115 ft 307 kts 291°
2026-04-26 14:30 42.44461 6.22741 16116 ft 307 kts 291°
2026-04-26 14:30 42.45225 6.20032 16114 ft 307 kts 290°
2026-04-26 14:31 42.45986 6.17324 16114 ft 307 kts 290°
2026-04-26 14:31 42.46739 6.14652 16111 ft 307 kts 290°
2026-04-26 14:31 42.47500 6.11944 16110 ft 308 kts 290°
2026-04-26 14:31 42.48262 6.09231 16110 ft 308 kts 291°
2026-04-26 14:32 42.49028 6.06515 16115 ft 308 kts 290°
2026-04-26 14:32 42.49786 6.03804 16116 ft 307 kts 290°
2026-04-26 14:32 42.50543 6.01088 16115 ft 307 kts 290°
2026-04-26 14:32 42.51294 5.98412 16115 ft 307 kts 290°
2026-04-26 14:33 42.52051 5.95702 16117 ft 307 kts 290°
2026-04-26 14:33 42.52806 5.92990 16119 ft 307 kts 290°
2026-04-26 14:33 42.53560 5.90287 16119 ft 307 kts 290°
2026-04-26 14:33 42.54317 5.87567 16119 ft 307 kts 290°
2026-04-26 14:34 42.55067 5.84875 16118 ft 302 kts 290°
2026-04-26 14:34 42.55792 5.82264 16118 ft 297 kts 290°
2026-04-26 14:34 42.56513 5.79658 16118 ft 292 kts 290°
2026-04-26 14:34 42.57228 5.77088 16118 ft 289 kts 290°
2026-04-26 14:35 42.57933 5.74541 16123 ft 287 kts 290°
2026-04-26 14:35 42.58633 5.72013 16122 ft 285 kts 290°
2026-04-26 14:35 42.59327 5.69502 16121 ft 283 kts 290°
2026-04-26 14:35 42.60008 5.67027 16121 ft 282 kts 290°
2026-04-26 14:36 42.60698 5.64534 16120 ft 281 kts 290°
2026-04-26 14:36 42.61383 5.62046 16120 ft 281 kts 290°
2026-04-26 14:36 42.62065 5.59566 16120 ft 280 kts 290°
2026-04-26 14:36 42.62747 5.57087 16120 ft 280 kts 290°
2026-04-26 14:37 42.63426 5.54613 16118 ft 279 kts 290°
2026-04-26 14:37 42.64106 5.52141 16118 ft 279 kts 290°
2026-04-26 14:37 42.64776 5.49698 16118 ft 279 kts 290°
2026-04-26 14:37 42.65451 5.47229 16119 ft 278 kts 290°
2026-04-26 14:38 42.66129 5.44755 16122 ft 278 kts 290°
2026-04-26 14:38 42.66804 5.42284 16122 ft 278 kts 290°
2026-04-26 14:38 42.67479 5.39813 16122 ft 278 kts 290°
2026-04-26 14:38 42.67925 5.38180 16122 ft 278 kts 290°
2026-04-26 14:39 42.68823 5.34879 16121 ft 278 kts 290°
2026-04-26 14:39 42.69489 5.32436 16124 ft 278 kts 290°
2026-04-26 14:39 42.70403 5.30156 16127 ft 276 kts 309°
2026-04-26 14:39 42.71735 5.28267 16124 ft 278 kts 314°
2026-04-26 14:40 42.73120 5.26420 16124 ft 278 kts 314°
2026-04-26 14:40 42.74479 5.24539 16124 ft 279 kts 312°
2026-04-26 14:40 42.75774 5.22618 16124 ft 278 kts 310°
2026-04-26 14:40 42.77070 5.20647 16124 ft 278 kts 311°
2026-04-26 14:41 42.78372 5.18688 16115 ft 279 kts 311°
2026-04-26 14:41 42.79676 5.16728 16123 ft 279 kts 311°
2026-04-26 14:41 42.80964 5.14794 16122 ft 279 kts 311°
2026-04-26 14:41 42.82272 5.12829 16122 ft 279 kts 311°
2026-04-26 14:42 42.83572 5.10870 16117 ft 279 kts 311°
2026-04-26 14:42 42.84881 5.08901 16120 ft 279 kts 311°
2026-04-26 14:42 42.86186 5.06938 16126 ft 279 kts 311°
2026-04-26 14:42 42.87489 5.04977 16120 ft 279 kts 311°
2026-04-26 14:43 42.88790 5.03018 16124 ft 279 kts 311°
2026-04-26 14:43 42.90083 5.01080 16123 ft 279 kts 311°
2026-04-26 14:43 42.91394 4.99109 16126 ft 279 kts 311°
2026-04-26 14:43 42.92700 4.97150 16119 ft 279 kts 311°
2026-04-26 14:44 42.94006 4.95181 16123 ft 279 kts 311°
2026-04-26 14:44 42.95315 4.93215 16123 ft 279 kts 311°
2026-04-26 14:44 42.96621 4.91245 16124 ft 279 kts 311°
2026-04-26 14:44 42.97910 4.89306 16120 ft 279 kts 311°
2026-04-26 14:45 42.99148 4.87437 16118 ft 279 kts 311°
2026-04-26 14:45 43.00012 4.86135 16117 ft 279 kts 311°
2026-04-26 14:45 43.01756 4.83503 16115 ft 279 kts 311°
2026-04-26 14:45 43.03061 4.81533 16119 ft 279 kts 311°
2026-04-26 14:46 43.04360 4.79564 16121 ft 279 kts 311°
2026-04-26 14:46 43.05644 4.77623 16122 ft 279 kts 311°
2026-04-26 14:46 43.06945 4.75651 16122 ft 279 kts 311°
2026-04-26 14:46 43.08249 4.73680 16122 ft 279 kts 311°
2026-04-26 14:47 43.09550 4.71705 16113 ft 279 kts 311°
2026-04-26 14:47 43.10849 4.69735 16113 ft 279 kts 311°
2026-04-26 14:47 43.12151 4.67761 16113 ft 279 kts 311°
2026-04-26 14:47 43.13447 4.65790 16120 ft 279 kts 311°
2026-04-26 14:48 43.14735 4.63836 16117 ft 279 kts 311°
2026-04-26 14:48 43.15914 4.62030 16113 ft 279 kts 311°
2026-04-26 14:48 43.17215 4.60054 16111 ft 279 kts 311°
2026-04-26 14:48 43.18517 4.58077 16107 ft 279 kts 311°
2026-04-26 14:49 43.19814 4.56094 16107 ft 279 kts 311°
2026-04-26 14:49 43.21114 4.54114 16111 ft 279 kts 311°
2026-04-26 14:49 43.22410 4.52135 16109 ft 279 kts 311°
2026-04-26 14:49 43.23691 4.50180 16111 ft 279 kts 311°
2026-04-26 14:50 43.24989 4.48191 16112 ft 279 kts 311°
2026-04-26 14:50 43.26286 4.46212 16111 ft 279 kts 311°
2026-04-26 14:50 43.27582 4.44230 16103 ft 279 kts 311°
2026-04-26 14:50 43.28877 4.42244 16108 ft 279 kts 311°
2026-04-26 14:51 43.30174 4.40258 16111 ft 279 kts 311°
2026-04-26 14:51 43.31466 4.38275 16106 ft 279 kts 311°
2026-04-26 14:51 43.32743 4.36313 16105 ft 279 kts 311°
2026-04-26 14:51 43.33522 4.35118 16108 ft 279 kts 311°
2026-04-26 14:52 43.35114 4.32675 16107 ft 278 kts 311°
2026-04-26 14:52 43.36402 4.30691 16107 ft 278 kts 311°
2026-04-26 14:52 43.37695 4.28699 16102 ft 279 kts 311°
2026-04-26 14:52 43.38988 4.26711 16098 ft 279 kts 311°
2026-04-26 14:53 43.40282 4.24723 16101 ft 279 kts 311°
2026-04-26 14:53 43.41481 4.22872 16098 ft 278 kts 311°
2026-04-26 14:53 43.42771 4.20880 16103 ft 278 kts 311°
2026-04-26 14:53 43.44059 4.18890 16105 ft 278 kts 311°
2026-04-26 14:54 43.45342 4.16881 16103 ft 278 kts 311°
2026-04-26 14:54 43.46622 4.14870 16102 ft 278 kts 311°
2026-04-26 14:54 43.47902 4.12877 16103 ft 278 kts 311°
2026-04-26 14:54 43.48754 4.11558 16100 ft 278 kts 311°
2026-04-26 14:55 43.50341 4.09110 16101 ft 278 kts 311°
2026-04-26 14:55 43.51628 4.07119 16101 ft 278 kts 311°
2026-04-26 14:55 43.52913 4.05130 16096 ft 278 kts 311°
2026-04-26 14:55 43.54172 4.03171 16105 ft 278 kts 311°
2026-04-26 14:56 43.55023 4.01847 16105 ft 278 kts 311°
2026-04-26 14:56 43.56727 3.99197 16101 ft 278 kts 311°
2026-04-26 14:56 43.57917 3.97132 16101 ft 277 kts 298°
2026-04-26 14:56 43.58376 3.95466 16104 ft 275 kts 286°
2026-04-26 14:57 43.58801 3.92919 16104 ft 275 kts 282°
2026-04-26 14:57 43.59179 3.90326 16096 ft 276 kts 282°
2026-04-26 14:57 43.59587 3.87717 16096 ft 277 kts 283°
2026-04-26 14:57 43.60001 3.85349 16092 ft 277 kts 285°
2026-04-26 14:58 43.60477 3.82769 16092 ft 277 kts 285°
2026-04-26 14:58 43.60945 3.80188 16097 ft 277 kts 285°
2026-04-26 14:58 43.61405 3.77634 16092 ft 277 kts 285°
2026-04-26 14:58 43.61874 3.75044 16092 ft 277 kts 285°
2026-04-26 14:59 43.62315 3.72625 16091 ft 278 kts 285°
2026-04-26 14:59 43.62777 3.70038 16092 ft 278 kts 285°
2026-04-26 14:59 43.63244 3.67439 16098 ft 278 kts 285°
2026-04-26 14:59 43.63553 3.65724 16092 ft 278 kts 285°
2026-04-26 15:00 43.64114 3.62592 16097 ft 279 kts 285°
2026-04-26 15:00 43.64543 3.60209 16098 ft 279 kts 285°
2026-04-26 15:00 43.65011 3.57601 16095 ft 279 kts 284°
2026-04-26 15:00 43.65473 3.54987 16100 ft 280 kts 285°
2026-04-26 15:01 43.65929 3.52409 16091 ft 279 kts 285°
2026-04-26 15:01 43.66398 3.49811 16101 ft 279 kts 285°
2026-04-26 15:01 43.66871 3.47208 16099 ft 279 kts 285°
2026-04-26 15:01 43.67342 3.44601 16094 ft 279 kts 285°
2026-04-26 15:02 43.67809 3.41997 16103 ft 278 kts 285°
2026-04-26 15:02 43.68249 3.39512 16099 ft 278 kts 285°
2026-04-26 15:02 43.68687 3.37030 16104 ft 277 kts 285°
2026-04-26 15:02 43.69139 3.34469 16096 ft 278 kts 285°
2026-04-26 15:03 43.69598 3.31873 16109 ft 278 kts 284°
2026-04-26 15:03 43.70059 3.29262 16104 ft 279 kts 284°
2026-04-26 15:03 43.70511 3.26656 16104 ft 279 kts 285°
2026-04-26 15:03 43.70970 3.24046 16107 ft 279 kts 285°
2026-04-26 15:04 43.71382 3.21728 16098 ft 280 kts 284°
2026-04-26 15:04 43.71840 3.19113 16104 ft 280 kts 284°
2026-04-26 15:04 43.72294 3.16495 16103 ft 280 kts 284°
2026-04-26 15:04 43.72749 3.13870 16113 ft 280 kts 284°
2026-04-26 15:05 43.73202 3.11277 16108 ft 280 kts 285°
2026-04-26 15:05 43.73504 3.09534 16102 ft 280 kts 285°
2026-04-26 15:05 43.74117 3.06031 16107 ft 280 kts 284°
2026-04-26 15:05 43.74558 3.03489 16111 ft 280 kts 285°
2026-04-26 15:06 43.75000 3.00908 16096 ft 279 kts 285°
2026-04-26 15:06 43.75451 2.98303 16108 ft 278 kts 285°
2026-04-26 15:06 43.75896 2.95708 16119 ft 277 kts 285°
2026-04-26 15:06 43.76344 2.93122 16115 ft 276 kts 285°
2026-04-26 15:07 43.77251 2.87947 16133 ft 277 kts 285°
2026-04-26 15:07 43.77452 2.85352 16131 ft 278 kts 267°
2026-04-26 15:07 43.77201 2.82727 16119 ft 279 kts 263°
2026-04-26 15:08 43.76888 2.80110 16126 ft 280 kts 262°
2026-04-26 15:08 43.76579 2.77446 16114 ft 279 kts 264°
2026-04-26 15:08 43.76675 2.74826 16122 ft 272 kts 287°
2026-04-26 15:08 43.76963 2.72591 16129 ft 274 kts 270°